User: anonymous
Location: Salamanca
(40.9670°N, 5.6500°W)
Time: 11:49:59
(UTC+02:00)
Language:

Cosmos 1633 Rocket - Orbit

View from above orbital plane
View from above orbital plane
View from above satellite
View from above satellite

Ground track
Ground track

The orbit data is extracted from the following two-line orbital elements,

1 15593U 85020B   14233.38204061  .00000171  00000-0  17730-4 0  7332
2 15593 082.5405 146.9895 0011677 195.9147 312.1544 14.83727284591482
Epoch (UTC): 21 August 2014 09:10:08
Eccentricity: 0.0011677
inclination: 82.5405°
perigee height: 609 km
apogee height: 626 km
right ascension of ascending node: 146.9895°
argument of perigee: 195.9147°
revolutions per day: 14.83727284
mean anomaly at epoch: 312.1544°
orbit number at epoch: 59148

The dashed part of the orbit path shows where the satellite is in the earth's shadow,  

DLR